THORAD AGENA D DEB

Satellite information

Favourite Embed

Satellite Type and Status

DEBRISIN ORBIT

Key statistics

Satellite THORAD AGENA D DEB at a glance.

Uptime

20240

Days in orbit

Revolutions

≈ 13.7

Per day

Orbit

SSO

Sun Synchronous Orbit

Inclination

100.1

Latest

Satellite identification and parameters

Extended collection of information and parameters for THORAD AGENA D DEB.

Object identification

Identified? True

Debris? True

Object name: THORAD AGENA D DEB

International designator: 1970-025QN

Object number (NORAD): 22532

Object ID (CCSDS): 22532

Country: UNITED STATES OF AMERICA (US)

Current information (Y/N): Y

RCS size: SMALL

Orbital parameters

Period: 105.133 minutes

Inclination: 100.0854 deg

SMA: 7378.82 km

Apoapsis: 1003.856 km

Periapsis: 997.515 km

RAAN: 58.762 deg

Eccentricy: 0.00042969

Argument of periapsis: 215.5078 deg

Mean anomaly: 173.5975 deg

Mean motion: 13.69690212 rev/day

Mean motion (dot): 0.0000142 rev/day2

B* drag term: 0.0016798544 1/REarth

Two-line elements (TLE)

Creation date: Sept. 5, 2025, 7:38 p.m.

Reference frame: TEME

Reference center: EARTH

Epoch: Sept. 5, 2025, 10:36 a.m. UTC

TLE line 0: 0 THORAD AGENA D DEB

TLE line 1: 1 22532U 70025QN 25248.44189192 .00001420 00000-0 16799-2 0 9998

TLE line 2: 2 22532 100.0854 58.7620 0004297 215.5078 173.5975 13.69690212613660

Live tracking on map

Real-time ground track for satellite THORAD AGENA D DEB.

In-orbit conjunctions

A list of the most updated potential collisions computed for object THORAD AGENA D DEB.

Target Orbit TCA Probability of collision Miss distance Type
POLAR BEAR LEO 2025-02-23 23:47:01 0.0002797955 821.0 (m) PAYLOAD

Associated space launch

Meteorological research and development satellite

THORAD AGENA D DEB was lifted into orbit during the mission ‘Thorad SLV-2G Agena D | Nimbus 4’, on board a Thorad SLV-2G Agena D space rocket.

The launch took place on April 8, 1970, 8:17 a.m. from Space Launch Complex 2E.

For more information about the launch, click the button.

Launch to space Thorad SLV-2G Agena D | Nimbus 4
Thorad SLV-2G Agena D | Nimbus 4

Agency: N/A

Status: Launch Successful

Launch date: April 8, 1970, 8:17 a.m. UTC

Rocket: Thorad SLV-2G Agena D

Launch pad: Space Launch Complex 2E

Location: Vandenberg SFB, CA, USA

...

Latest news about this satellite

There are no fresh news available about this satellite. Check back as we update our databases every day.


Newsletter sign-up

Weekly statistics, charts and insights to help you stay on top of the space industry.